Flag for Colombia Weather past 2 weeks in Barranquilla, Colombia

Now
79 °F

Passing clouds.


Feels Like: 82 °F
Forecast: 77 / 83 °F
Wind: 16 mph from Northeast

Location: Barranquilla / Ernestocortissoz

Current Time: Mar 29, 2015 at 8:23:04 PM

Latest Report: Mar 29, 2015 at 7:00 PM


Visibility: N/A

Pressure: 29.89 "Hg

Humidity: 89%

Dew point: 75 °F

Location of BarranquillaLocation

Historic Weather in Barranquilla — Graph

°F

Barranquilla temperature yesterday

Maximum temperature yesterday: 91 °F (at 11:00 AM)
Minimum temperature yesterday: 77 °F (at 4:00 AM)
Average temperature yesterday: 82 °F

Past Weeks' High & Low Weather Summary

 TemperatureHumidityPressure
High95 °F (Mar 24, 12:00 PM)100% (Mar 16, 4:00 AM)30.00 "Hg (Mar 16, 4:00 AM)
Low75 °F (Mar 15, 6:00 AM)49% (Mar 22, 1:00 PM)29.72 "Hg (Mar 14, 7:00 PM)
Average81 °F81%29.88 "Hg
* Reported Mar 14 7:00 PM — Mar 29 7:00 PM, Barranquilla, Weather by CustomWeather, © 2015

Note: Actual official high and low records may vary slightly from our data, if they occured in-between our weather recording intervals... More about our weather records

Advertising

Barranquilla weather history for previous 24 hours

 ConditionsComfort  
Time TempWeatherWind HumidityBarometerVisibility
7:00 PM
Sun, Mar 29
79 °FPassing clouds.16 mph89%29.89 "HgN/A
6:00 PM79 °FBroken clouds.14 mph89%29.87 "HgN/A
5:00 PM81 °FBroken clouds.12 mph84%29.88 "HgN/A
4:00 PM82 °FMore clouds than sun.9 mph79%29.87 "HgN/A
3:00 PM84 °FMore clouds than sun.17 mph74%29.88 "HgN/A
2:00 PM86 °FPartly sunny.13 mph70%29.90 "HgN/A
1:00 PM86 °FBroken clouds.14 mph79%29.93 "HgN/A
12:00 PM86 °FMore clouds than sun.10 mph75%29.97 "HgN/A
11:00 AM86 °FMostly cloudy.3 mph75%29.98 "Hg5 mi
10:00 AM84 °FFog.3 mph79%29.98 "Hg4 mi
9:00 AM82 °FFog.3 mph84%29.98 "Hg3 mi
8:00 AM81 °FFog.6 mph94%29.96 "Hg2 mi
7:00 AM77 °FFog.3 mph100%29.93 "Hg2 mi
6:00 AM77 °FFog.5 mph100%29.90 "Hg5 mi
5:00 AM77 °FPassing clouds.3 mph100%29.88 "HgN/A
4:00 AM77 °FPassing clouds.2 mph94%29.87 "HgN/A
3:00 AM77 °FPassing clouds.6 mph94%29.85 "HgN/A
2:55 AM77 °FPassing clouds.6 mph94%29.85 "HgN/A
2:00 AM79 °FPassing clouds.7 mph94%29.85 "HgN/A
1:57 AM79 °FPassing clouds.7 mph94%29.85 "HgN/A
1:00 AM79 °FPassing clouds.8 mph94%29.87 "HgN/A
12:59 AM79 °FPassing clouds.8 mph94%29.87 "HgN/A
12:00 AM79 °FClear.10 mph94%29.88 "Hg10 mi
11:00 PM
Sat, Mar 28
79 °FClear.7 mph89%29.90 "Hg10 mi
10:00 PM79 °FClear.7 mph89%29.89 "Hg10 mi
9:00 PM81 °FPassing clouds.13 mph84%29.87 "HgN/A
8:00 PM81 °FPassing clouds.15 mph84%29.87 "HgN/A
Weather by CustomWeather, © 2015

See weather overviewHow to use our weather pages